Time,TemperatureF,DewpointF,PressureIn,WindDirection,WindDirectionDegrees,WindSpeedMPH,WindSpeedGustMPH,Humidity,HourlyPrecipIn,Conditions,Clouds,dailyrainin,SolarRadiationWatts/m^2,SoftwareType,DateUTC
2014-12-17 00:02:00,31.0,31.0,-100.00,NE,36,6.0,11.0,100,0.00,,,0.04,0.000000,,2014-12-17 08:02:00,
2014-12-17 00:11:00,31.0,31.0,-100.00,NE,36,6.0,11.0,100,0.00,,,0.04,0.000000,,2014-12-17 08:11:00,
2014-12-17 00:42:00,31.0,31.0,-100.00,NE,38,6.0,11.0,100,0.00,,,0.04,0.000000,,2014-12-17 08:42:00,
2014-12-17 00:52:00,31.0,31.0,-100.00,NE,38,6.0,11.0,100,0.00,,,0.04,0.000000,,2014-12-17 08:52:00,
2014-12-17 01:02:00,31.0,31.0,-100.00,NE,38,6.0,11.0,100,0.00,,,0.04,0.000000,,2014-12-17 09:02:00,
2014-12-17 01:12:00,31.0,31.0,-100.00,NE,38,6.0,11.0,100,0.00,,,0.04,0.000000,,2014-12-17 09:12:00,
2014-12-17 01:43:00,31.0,31.0,-100.00,NE,43,4.0,11.0,100,0.00,,,0.04,0.000000,,2014-12-17 09:43:00,
2014-12-17 01:54:00,31.0,31.0,-100.00,NE,43,4.0,11.0,100,0.00,,,0.04,0.000000,,2014-12-17 09:54:00,
2014-12-17 02:03:00,31.0,31.0,-100.00,NE,43,4.0,11.0,100,0.00,,,0.04,0.000000,,2014-12-17 10:03:00,
2014-12-17 02:13:00,31.0,31.0,-100.00,NE,43,4.0,11.0,100,0.00,,,0.04,0.000000,,2014-12-17 10:13:00,
2014-12-17 02:43:00,31.0,31.0,-100.00,NNE,33,5.0,9.0,100,0.00,,,0.04,0.000000,,2014-12-17 10:43:00,
2014-12-17 02:53:00,31.0,31.0,-100.00,NNE,33,5.0,9.0,100,0.00,,,0.04,0.000000,,2014-12-17 10:53:00,
2014-12-17 03:02:00,31.0,31.0,-100.00,NNE,33,5.0,9.0,100,0.00,,,0.04,0.000000,,2014-12-17 11:02:00,
2014-12-17 03:12:00,31.0,31.0,-100.00,NNE,33,5.0,9.0,100,0.00,,,0.04,0.000000,,2014-12-17 11:12:00,
2014-12-17 03:42:00,31.0,31.0,-100.00,NE,47,5.0,10.0,100,0.00,,,0.04,0.000000,,2014-12-17 11:42:00,
2014-12-17 03:52:00,31.0,31.0,-100.00,NE,47,5.0,10.0,100,0.00,,,0.04,0.000000,,2014-12-17 11:52:00,
2014-12-17 04:02:00,31.0,31.0,-100.00,NE,47,5.0,10.0,100,0.00,,,0.04,0.000000,,2014-12-17 12:02:00,
2014-12-17 04:12:00,31.0,31.0,-100.00,NE,47,5.0,10.0,100,0.00,,,0.04,0.000000,,2014-12-17 12:12:00,
2014-12-17 04:42:00,31.0,31.0,-100.00,NE,46,4.0,9.0,100,0.00,,,0.04,0.000000,,2014-12-17 12:42:00,
2014-12-17 04:52:00,31.0,31.0,-100.00,NE,46,4.0,9.0,100,0.00,,,0.04,0.000000,,2014-12-17 12:52:00,
2014-12-17 05:02:00,31.0,31.0,-100.00,NE,46,4.0,9.0,100,0.00,,,0.04,0.000000,,2014-12-17 13:02:00,
2014-12-17 05:11:00,31.0,31.0,-100.00,NE,46,4.0,9.0,100,0.00,,,0.04,0.000000,,2014-12-17 13:11:00,
2014-12-17 05:42:00,31.0,31.0,-100.00,NE,44,5.0,8.0,100,0.00,,,0.04,0.000000,,2014-12-17 13:42:00,
2014-12-17 05:52:00,31.0,31.0,-100.00,NE,44,5.0,8.0,100,0.00,,,0.04,0.000000,,2014-12-17 13:52:00,
2014-12-17 06:02:00,31.0,31.0,-100.00,NE,44,5.0,8.0,100,0.00,,,0.04,0.000000,,2014-12-17 14:02:00,
2014-12-17 06:11:00,31.0,31.0,-100.00,NE,44,5.0,8.0,100,0.00,,,0.04,0.000000,,2014-12-17 14:11:00,
2014-12-17 06:42:00,31.0,31.0,-100.00,NE,43,4.0,9.0,100,0.00,,,0.04,0.000000,,2014-12-17 14:42:00,
2014-12-17 06:52:00,31.0,31.0,-100.00,NE,43,4.0,9.0,100,0.00,,,0.04,0.000000,,2014-12-17 14:52:00,
2014-12-17 07:02:00,31.0,31.0,-100.00,NE,43,4.0,9.0,100,0.00,,,0.04,0.000000,,2014-12-17 15:02:00,
2014-12-17 07:11:00,31.0,31.0,-100.00,NE,43,4.0,9.0,100,0.00,,,0.04,0.000000,,2014-12-17 15:11:00,
2014-12-17 07:44:00,31.0,31.0,-100.00,NE,34,4.0,8.0,100,0.00,,,0.04,0.000000,,2014-12-17 15:44:00,
2014-12-17 07:53:00,31.0,31.0,-100.00,NE,34,4.0,8.0,100,0.00,,,0.04,0.000000,,2014-12-17 15:53:00,
2014-12-17 08:04:00,31.0,31.0,-100.00,NE,34,4.0,8.0,100,0.00,,,0.04,0.000000,,2014-12-17 16:04:00,
2014-12-17 08:13:00,31.0,31.0,-100.00,NE,34,4.0,8.0,100,0.00,,,0.04,0.000000,,2014-12-17 16:13:00,
2014-12-17 08:43:00,31.0,31.0,-100.00,NE,39,3.0,6.0,100,0.00,,,0.04,1.000000,,2014-12-17 16:43:00,
2014-12-17 08:53:00,31.0,31.0,-100.00,NE,39,3.0,6.0,100,0.00,,,0.04,1.000000,,2014-12-17 16:53:00,
2014-12-17 09:02:00,31.0,31.0,-100.00,NE,39,3.0,6.0,100,0.00,,,0.04,1.000000,,2014-12-17 17:02:00,
2014-12-17 09:12:00,31.0,31.0,-100.00,NE,39,3.0,6.0,100,0.00,,,0.04,1.000000,,2014-12-17 17:12:00,
2014-12-17 09:42:00,31.0,31.0,-100.00,NNE,33,2.0,5.0,100,0.00,,,0.03,9.000000,,2014-12-17 17:42:00,
2014-12-17 09:52:00,31.0,31.0,-100.00,NNE,33,2.0,5.0,100,0.00,,,0.03,9.000000,,2014-12-17 17:52:00,
2014-12-17 10:02:00,31.0,31.0,-100.00,NNE,33,2.0,5.0,100,0.00,,,0.03,9.000000,,2014-12-17 18:02:00,
2014-12-17 10:12:00,31.0,31.0,-100.00,NNE,33,2.0,5.0,100,0.00,,,0.03,9.000000,,2014-12-17 18:12:00,
2014-12-17 10:44:00,33.0,33.0,-100.00,NE,39,2.0,4.0,100,0.00,,,0.02,33.000000,,2014-12-17 18:44:00,
2014-12-17 10:53:00,33.0,33.0,-100.00,NE,39,2.0,4.0,100,0.00,,,0.02,33.000000,,2014-12-17 18:53:00,
2014-12-17 11:03:00,33.0,33.0,-100.00,NE,39,2.0,4.0,100,0.00,,,0.02,33.000000,,2014-12-17 19:03:00,
2014-12-17 11:11:00,33.0,33.0,-100.00,NE,39,2.0,4.0,100,0.00,,,0.02,33.000000,,2014-12-17 19:11:00,
2014-12-17 11:42:00,33.0,33.0,-100.00,NNE,27,1.0,4.0,100,0.00,,,0.01,23.000000,,2014-12-17 19:42:00,
2014-12-17 11:52:00,33.0,33.0,-100.00,NNE,27,1.0,4.0,100,0.00,,,0.01,23.000000,,2014-12-17 19:52:00,
2014-12-17 12:02:00,33.0,33.0,-100.00,NNE,27,1.0,4.0,100,0.00,,,0.01,23.000000,,2014-12-17 20:02:00,
2014-12-17 12:12:00,33.0,33.0,-100.00,NNE,27,1.0,4.0,100,0.00,,,0.01,23.000000,,2014-12-17 20:12:00,
2014-12-17 12:42:00,33.0,33.0,-100.00,NNE,32,1.0,4.0,100,0.00,,,0.00,53.000000,,2014-12-17 20:42:00,
2014-12-17 12:52:00,33.0,33.0,-100.00,NNE,32,1.0,4.0,100,0.00,,,0.00,53.000000,,2014-12-17 20:52:00,
2014-12-17 13:02:00,33.0,33.0,-100.00,NNE,32,1.0,4.0,100,0.00,,,0.00,53.000000,,2014-12-17 21:02:00,
2014-12-17 13:11:00,33.0,33.0,-100.00,NNE,32,1.0,4.0,100,0.00,,,0.00,53.000000,,2014-12-17 21:11:00,
2014-12-17 13:43:00,33.0,33.0,-100.00,NNE,29,2.0,4.0,100,0.00,,,0.00,75.000000,,2014-12-17 21:43:00,
2014-12-17 13:54:00,33.0,33.0,-100.00,NNE,29,2.0,4.0,100,0.00,,,0.00,75.000000,,2014-12-17 21:54:00,
2014-12-17 14:03:00,33.0,33.0,-100.00,NNE,29,2.0,4.0,100,0.00,,,0.00,75.000000,,2014-12-17 22:03:00,
2014-12-17 14:12:00,33.0,33.0,-100.00,NNE,29,2.0,4.0,100,0.00,,,0.00,75.000000,,2014-12-17 22:12:00,
2014-12-17 14:43:00,32.0,32.0,-100.00,NNE,15,2.0,4.0,100,0.00,,,0.00,52.000000,,2014-12-17 22:43:00,
2014-12-17 14:53:00,32.0,32.0,-100.00,NNE,15,2.0,4.0,100,0.00,,,0.00,52.000000,,2014-12-17 22:53:00,
2014-12-17 15:03:00,32.0,32.0,-100.00,NNE,15,2.0,4.0,100,0.00,,,0.00,52.000000,,2014-12-17 23:03:00,
2014-12-17 15:12:00,32.0,32.0,-100.00,NNE,15,2.0,4.0,100,0.00,,,0.00,52.000000,,2014-12-17 23:12:00,
2014-12-17 15:42:00,32.0,32.0,-100.00,West,265,1.0,3.0,100,0.00,,,0.00,27.000000,,2014-12-17 23:42:00,
2014-12-17 15:53:00,32.0,32.0,-100.00,West,265,1.0,3.0,100,0.00,,,0.00,27.000000,,2014-12-17 23:53:00,
2014-12-17 16:02:00,32.0,32.0,-100.00,West,265,1.0,3.0,100,0.00,,,0.00,27.000000,,2014-12-18 00:02:00,
2014-12-17 16:12:00,32.0,32.0,-100.00,West,265,1.0,3.0,100,0.00,,,0.00,27.000000,,2014-12-18 00:12:00,
2014-12-17 16:42:00,32.0,32.0,-100.00,North,-999,0.0,2.0,100,0.00,,,0.00,10.000000,,2014-12-18 00:42:00,
2014-12-17 16:52:00,32.0,32.0,-100.00,North,-999,0.0,2.0,100,0.00,,,0.00,10.000000,,2014-12-18 00:52:00,
2014-12-17 17:01:00,32.0,32.0,-100.00,North,-999,0.0,2.0,100,0.00,,,0.00,10.000000,,2014-12-18 01:01:00,
2014-12-17 17:11:00,32.0,32.0,-100.00,North,-999,0.0,2.0,100,0.00,,,0.00,10.000000,,2014-12-18 01:11:00,
2014-12-17 17:42:00,32.0,32.0,-100.00,NNW,343,1.0,3.0,100,0.00,,,0.00,2.000000,,2014-12-18 01:42:00,
2014-12-17 17:52:00,32.0,32.0,-100.00,NNW,343,1.0,3.0,100,0.00,,,0.00,2.000000,,2014-12-18 01:52:00,
2014-12-17 18:02:00,32.0,32.0,-100.00,NNW,343,1.0,3.0,100,0.00,,,0.00,2.000000,,2014-12-18 02:02:00,
2014-12-17 18:11:00,32.0,32.0,-100.00,NNW,343,1.0,3.0,100,0.00,,,0.00,2.000000,,2014-12-18 02:11:00,
2014-12-17 18:52:00,32.0,32.0,-100.00,North,-999,0.0,3.0,100,0.00,,,0.00,0.000000,,2014-12-18 02:52:00,
2014-12-17 19:02:00,32.0,32.0,-100.00,North,-999,0.0,3.0,100,0.00,,,0.00,0.000000,,2014-12-18 03:02:00,
2014-12-17 19:11:00,32.0,32.0,-100.00,North,-999,0.0,3.0,100,0.00,,,0.00,0.000000,,2014-12-18 03:11:00,
2014-12-17 19:44:00,32.0,32.0,-100.00,NNE,20,1.0,4.0,100,0.00,,,0.00,0.000000,,2014-12-18 03:44:00,
2014-12-17 19:54:00,32.0,32.0,-100.00,NNE,20,1.0,4.0,100,0.00,,,0.00,0.000000,,2014-12-18 03:54:00,
2014-12-17 20:03:00,32.0,32.0,-100.00,NNE,20,1.0,4.0,100,0.00,,,0.00,0.000000,,2014-12-18 04:03:00,
2014-12-17 20:13:00,32.0,32.0,-100.00,NNE,20,1.0,4.0,100,0.00,,,0.00,0.000000,,2014-12-18 04:13:00,
2014-12-17 20:43:00,32.0,32.0,-100.00,North,-999,0.0,2.0,100,0.01,,,0.01,0.000000,,2014-12-18 04:43:00,
2014-12-17 20:53:00,32.0,32.0,-100.00,North,-999,0.0,2.0,100,0.01,,,0.01,0.000000,,2014-12-18 04:53:00,
2014-12-17 21:03:00,32.0,32.0,-100.00,North,-999,0.0,2.0,100,0.01,,,0.01,0.000000,,2014-12-18 05:03:00,
2014-12-17 21:13:00,32.0,32.0,-100.00,North,-999,0.0,2.0,100,0.01,,,0.01,0.000000,,2014-12-18 05:13:00,
2014-12-17 21:43:00,32.0,32.0,-100.00,WSW,251,2.0,5.0,100,0.00,,,0.01,0.000000,,2014-12-18 05:43:00,
2014-12-17 21:54:00,32.0,32.0,-100.00,WSW,251,2.0,5.0,100,0.00,,,0.01,0.000000,,2014-12-18 05:54:00,
2014-12-17 22:02:00,32.0,32.0,-100.00,WSW,251,2.0,5.0,100,0.00,,,0.01,0.000000,,2014-12-18 06:02:00,
2014-12-17 22:12:00,32.0,32.0,-100.00,WSW,251,2.0,5.0,100,0.00,,,0.01,0.000000,,2014-12-18 06:12:00,
2014-12-17 22:42:00,32.0,32.0,-100.00,NNE,21,2.0,3.0,100,0.00,,,0.01,0.000000,,2014-12-18 06:42:00,
2014-12-17 22:52:00,32.0,32.0,-100.00,NNE,21,2.0,3.0,100,0.00,,,0.01,0.000000,,2014-12-18 06:52:00,
2014-12-17 23:02:00,32.0,32.0,-100.00,NNE,21,2.0,3.0,100,0.00,,,0.01,0.000000,,2014-12-18 07:02:00,
2014-12-17 23:11:00,32.0,32.0,-100.00,NNE,21,2.0,3.0,100,0.00,,,0.01,0.000000,,2014-12-18 07:11:00,